Regional Weather Roundup
Issued by NWS Cleveland, OH

Home | Current Version | Previous Version | Graphics & Text | Print | Product List | Glossary On
Versions: 1 2 3 4 5 6 7 8 9 10 11 12 13 14 15 16 17 18 19 20 21 22 23 24 25 26 27 28 29 30 31 32 33 34 35 36 37 38 39 40 41 42 43 44 45 46 47 48 49 50
000
ASUS41 KCLE 292010
RWRCLE
OHIO REGIONAL WEATHER ROUNDUP
NATIONAL WEATHER SERVICE WILMINGTON, OH
400 PM EDT SUN MAY 29 2016

NOTE: "FAIR" INDICATES FEW OR NO CLOUDS BELOW 12,000 FEET WITH NO
SIGNIFICANT WEATHER AND/OR OBSTRUCTIONS TO VISIBILITY.

OHZ001>008-015>018-024>027-034-035-043-044-292100-
   NORTHWEST OHIO

CITY           SKY/WX    TMP DP  RH WIND       PRES   REMARKS
DEFIANCE       FAIR      88  58  36 SW13G23   29.97F
FINDLAY        FAIR      86  64  47 S18G24    29.99F
TOLEDO EXPRESS FAIR      89  59  36 SW16G23   29.96F
TOLEDO EXEC    FAIR      89  61  38 SW18G26   29.97F
LIMA           FAIR      85  64  49 SW14G20   30.01F
$$

OHZ009>014-019>023-028>033-038-089-292100-
   NORTHEAST OHIO

CITY           SKY/WX    TMP DP  RH WIND       PRES   REMARKS
CLE-HOPKINS    CLOUDY    82  63  52 S12G20    30.05F
CLE-LAKEFRONT  FAIR      83  61  47 S15       30.02F
CUY CO. ARPT   CLOUDY    82  64  54 SW12      30.05F
LORAIN-ELYRIA  FAIR      83  67  58 SW13      30.03F
ASHTABULA      FAIR      80  65  59 SW8       30.06F
AKRON-CANTON   CLOUDY    78  63  59 SW8       30.08F
WOOSTER        FAIR      82  62  50 SW13      30.08F
MANSFIELD      FAIR      82  64  54 S10       30.07F
YOUNGSTOWN     CLOUDY    80  66  62 SW7       30.07F
$$

OHZ042-051>053-060>062-070>072-077>081-292100-
  SOUTHWEST OHIO

CITY           SKY/WX    TMP DP  RH WIND       PRES   REMARKS
CINC-COVINGTON PTSUNNY   85  65  51 SW10      30.05F
CINC-LUNKEN    FAIR      84  69  60 S10       30.04F
HAMILTON       FAIR      88  67  49 SW12G20   30.04F HX  91
DAYTON         PTSUNNY   73  62  68 E12       30.05F THUNDER
WRIGHT-PAT AFB TSTM      82  66  57 SW3       30.03F
DAYTON GENERAL FAIR      85  64  49 S13       30.03F
WILMINGTON     FAIR      83  64  52 S9        30.05F
$$

OHZ036-037-039>041-045>050-054>059-063>069-073>076-082>088-292100-
  CENTRAL AND SOUTHEAST OHIO

CITY           SKY/WX    TMP DP  RH WIND       PRES   REMARKS
COLUMBUS       PTSUNNY   82  60  47 S8        30.06F
OSU AIRPORT    FAIR      83  66  56 S13       30.05F
BOLTON FIELD   SUNNY     82  68  61 S13       30.06F
RICKENBACK AFB FAIR      82  62  49 S10       30.06F
NEWARK         FAIR      84  66  54 SW7       30.06F
MARION         FAIR      83  67  58 S13       30.04F
LANCASTER      FAIR      83  65  54 S7        30.07F
ZANESVILLE     CLOUDY    82  64  54 W6        30.07F
NEW PHILLY     PTSUNNY   82  64  54 CALM      30.08F
$$




USA.gov is the U.S. government's official web portal to all federal, state and local government web resources and services.